Location: Croagnes
(43.9363°N, 5.3265°E)
Time: 19:03:37
(UTC+00:00)

NOSS 3-4 (C) - Pass Details

Date: 06 June 2020
Orbit: 893 x 1319 km, 63.4° (Epoch: 06 July)

Event Time Altitude Azimuth Distance (km) Brightness Sun altitude
Rises 21:27:23 0° 218° (SW) 3,492 6.2 -16.9°
Reaches altitude 10° 21:29:50 10° 220° (SW) 2,562 5.5 -17.2°
Maximum altitude 21:35:45 81° 308° (NW) 940 3.5 -17.7°
Drops below altitude 10° 21:42:05 10° 36° (NE) 2,733 6.2 -18.2°
Sets 21:44:46 0° 37° (NE) 3,741 6.9 -18.5°
